Location: Brachbach
(49.1847°N, 9.7240°E)
Time: 05:16:14
(UTC+00:00)

PCSat - Pass Details

Date: 20 March 2026
Orbit: 780 x 790 km, 67.1° (Epoch: 13 April)

Event Time Altitude Azimuth Distance (km) Brightness Sun altitude
Rises 02:55:08 0° 324° (NW) 3,296 12.7 -24.1°
Reaches altitude 10° 02:58:16 10° 342° (NNW) 2,365 12.2 -23.7°
Maximum altitude 03:02:08 19° 28° (NNE) 1,800 12.0 -23.1°
Drops below altitude 10° 03:05:58 10° 73° (ENE) 2,359 13.1 -22.6°
Sets 03:09:04 0° 91° (E) 3,284 13.8 -22.1°
